Location: �quirre
(50.4736°N, 2.2351°E)
Time: 16:41:42
(UTC+00:00)

Helios 1B rocket - Pass Details

Date: 07 August 2020
Orbit: 575 x 583 km, 98.1° (Epoch: 25 September)

Event Time Altitude Azimuth Distance (km) Brightness Sun altitude
Rises 00:42:58 0° 14° (NNE) 2,802 7.4 -22.4°
Reaches altitude 10° 00:45:08 10° 14° (NNE) 1,898 6.2 -22.4°
Maximum altitude 00:49:15 87° 286° (WNW) 584 2.3 -22.2°
Enters shadow 00:49:31 77° 212° (SSW) 596 2.2 -22.2°
